COSMOS 2491 DEB, 44992

Orbit data source: Space-Track

COSMOS 2491 DEB, 44992 is space debris in LEO originally from a launch on Wed, 25 Dec 2013 UTC launched from the Plesetsk Missile And Space Complex (PKMTR). Debris objects in space refer to the collection of defunct objects orbiting the Earth. Examples of debris include non-operational satellites, rocket bodies, and fragments generated from explosions, collisions, or faulty payload assembly.

Loading next visibility...
Identifier
44992, 2013-076N
Orbit
LEO
Country
Flag of CISCIS
Related business
Manufacturer
TsNIIKhM
Mission
Spacecraft
Bus & Motor
Unknown
Mass
Unknown
Launch date (UTC)
2013-12-25 (12 years ago)
Launch vehicle
Unknown
Launch site
Plesetsk Missile And Space Complex (PKMTR)
Object type
Payload
Rocket body
Debris
Shape & HBR
Unknown shape, 0.1 m
Radar Cross Section
Small (<0.1 m²)

Expand to show TLE details & history
Last TLE update: 1 week ago

TLE from 1 week ago
0 COSMOS 2491 DEB
1 44992U 13076N   25280.32143321  .00002791  00000-0  16739-1 0  9997
2 44992  82.4750 310.2290 0102538  99.5001 261.7692 12.55235732262071
Epoch: 2025-10-07T07:42Z
TLE epoch observation values (Epoch: 2025-10-07T07:42:51.829Z)
Latitude
-0.00002°
Longitude
178.30104°
Altitude
1,457.675 km
Speed
7.128 km/s
True Right ascension
20h 40m 54s
True Declination
0° 00' 00"
Sunlit
Object was in daylight at epoch
Visualization orbit readout
Latitude
Unknown
Longitude
Unknown
Altitude
Unknown
Speed
Unknown
Apparent Right ascension
Unknown
Apparent Declination
Unknown
Sunlit
N/A
Visualization observer readout
Local Sidereal Time
21:34:46
Azimuth
Unknown
Elevation
Unknown
Doppler factor
Unknown
Orbital elements
Apogee altitude
1,520.171 km
Perigee altitude
1,359.84 km
Semi-major axis
7,818.143 km
Eccentricity
0.01025
Inclination
82.475°
RAAN
310.229°
Arg. of periapsis
99.5001°
True anomaly
260.60851°
Mean anomaly
261.7692°
Eccentric anomaly
261.18863°
Mean motion
3.1397 °/min
Orbital period
114.66 mins
BSTAR
0.016739
Loading maneuver chart data...
Computing Atmospheric mass density...
Loading historical data...
Loading historical data...
Loading historical data...
Loading historical data...
Loading historical data...
Loading historical data...
Loading historical data...

Documentation

Showing up to 5 results
|